Temperature
16 16 16 16 16 16 16 16 16 16 16 16 15 15 15 15 15 15 14 14 14 14 14 14 14 14 15 15 15 15 15 15 16 17 16 16 15 15 15 15 15 15 15
16 16 16 16 16 16 16 16 16 16 16 16 15 15 15 15 15 15 15 14 14 14 14 14 14 14 14 15 15 15 15 15 15 15 16 16 15 14 15 15 15 15 15
16 16 16 16 16 16 16 16 16 16 16 16 15 15 15 15 15 15 15 15 15 14 14 14 14 14 14 14 14 15 15 15 14 15 15 15 15 14 14 14 15 15 15
16 16 16 16 16 16 16 16 16 16 16 15 15 15 15 15 15 15 15 15 15 14 14 14 14 14 14 14 14 14 14 14 14 14 15 15 14 14 14 14 14 14 14
16 16 16 16 16 16 16 16 16 16 15 15 15 15 15 15 15 15 15 15 15 15 14 14 14 14 14 14 14 14 14 14 14 14 14 14 14 14 13 14 14 14 14
16 16 16 16 16 16 16 16 15 15 15 15 15 15 15 15 15 15 15 15 14 14 14 14 14 14 14 14 13 13 13 13 13 13 13 13 13 12 12 12 12 12 12
16 16 16 16 15 15 15 15 15 15 15 15 15 15 15 15 15 15 15 14 14 14 13 13 13 13 13 13 13 13 12 12 12 12 12 12 11 11 11 11 11 11 11
15 16 15 15 15 15 15 15 15 14 14 14 14 14 14 14 14 14 13 13 13 13 12 12 12 12 12 12 11 11 11 11 11 11 11 10 10 10 10 10 10 10 10
15 15 15 15 15 15 14 14 14 14 14 13 13 13 13 13 12 12 12 12 12 11 11 11 11 11 11 11 10 10 10 9 10 10 10 10 10 10 10 9 9 9 10
14 14 14 14 14 14 14 13 13 13 13 12 12 12 12 12 11 11 11 11 10 10 10 10 10 10 10 10 9 9 9 8 8 8 8 8 8 8 8 8 7 8 8
14 14 14 13 13 13 13 12 12 12 12 11 11 11 11 11 10 10 10 10 10 9 9 9 8 8 8 8 8 8 8 8 7 7 7 7 7 7 7 7 6 6 6
13 13 13 12 12 12 12 12 11 11 11 10 10 10 10 9 9 9 9 9 9 8 8 7 7 7 7 7 7 7 7 7 6 6 7 7 7 6 6 6 5 5 5
12 12 12 12 11 11 11 11 10 10 10 10 9 9 8 8 8 8 8 8 8 7 7 7 7 7 7 6 6 6 6 5 5 6 6 6 5 5 5 4 4 4 4
11 11 11 11 10 10 10 10 10 10 10 9 9 9 8 8 7 7 7 6 6 6 6 6 6 6 5 5 5 5 4 4 4 4 4 4 4 4 4 4 4 4 4
10 10 10 10 10 10 9 9 9 9 9 8 8 8 7 7 7 6 6 6 6 5 5 5 5 5 5 5 4 4 4 3 3 3 3 3 3 3 3 3 3 3 3
10 10 10 9 9 9 9 8 8 8 8 7 7 7 6 6 6 6 5 5 5 5 5 5 5 4 4 4 3 3 3 3 2 2 2 2 2 2 2 2 2 2 2
9 9 9 9 9 8 8 8 7 7 7 6 6 6 5 5 5 5 4 4 4 4 4 4 3 3 3 2 2 2 2 2 1 1 1 1 1 1 1 1 1 1 1
9 9 9 8 8 8 8 8 7 7 6 5 5 5 4 4 4 4 3 3 4 3 3 3 2 2 2 1 1 1 1 1 1 1 1 1 1 1 1 1 1 1 1
8 8 8 8 8 7 7 7 7 6 6 5 4 4 3 3 3 2 2 3 3 3 2 2 1 1 1 0 0 -0 -0 -0 -0 -0 0 0 -0 -0 -0 0 0 0 0
8 7 7 7 7 7 7 7 6 6 5 5 4 3 3 3 3 3 2 2 2 2 1 1 1 0 0 -0 -0 -0 -1 -1 -1 -1 -1 -1 -1 -1 -1 -1 -1 -1 -0
7 7 7 7 7 6 6 6 5 5 5 4 4 2 2 2 3 2 2 1 1 1 1 0 0 -0 -0 -0 -1 -1 -1 -1 -1 -1 -1 -1 -1 -1 -1 -1 -1 -1 -1
7 7 6 6 6 5 5 5 5 4 4 4 3 3 2 2 2 2 1 1 1 0 0 -0 -0 -1 -1 -1 -1 -1 -1 -1 -2 -2 -2 -2 -2 -2 -1 -1 -1 -1 -1
6 6 6 5 5 4 5 4 4 4 3 3 3 2 2 2 1 1 1 0 0 -0 -0 -1 -1 -1 -1 -2 -2 -2 -2 -2 -2 -2 -2 -2 -2 -2 -2 -1 -1 -1 -1
6 6 5 5 5 4 4 4 4 3 3 3 2 2 2 1 1 0 0 -0 -0 -1 -1 -1 -1 -2 -2 -2 -2 -2 -2 -2 -2 -2 -2 -2 -2 -2 -2 -2 -1 -1 -1
5 5 5 4 4 4 4 3 3 3 2 2 2 1 1 1 0 0 -0 -0 -1 -1 -1 -1 -2 -2 -2 -2 -2 -3 -2 -2 -2 -2 -2 -2 -2 -2 -2 -2 -1 -1 -1
5 4 4 4 4 4 3 3 3 2 2 2 1 1 1 0 0 -0 -0 -1 -1 -1 -1 -1 -2 -2 -2 -2 -2 -2 -2 -2 -2 -2 -2 -1 -2 -2 -2 -1 -1 -1 -1
Wind_Speed
11 11 10 10 10 9 8 8 8 8 8 9 9 8 8 8 8 7 7 6 7 6 6 6 6 5 5 5 5 5 5 6 6 6 5 4 5 8 6 7 10 10 12
11 11 10 9 9 9 9 9 8 9 9 9 9 9 8 8 8 9 9 8 8 8 8 7 7 6 7 7 6 7 6 6 7 8 7 6 7 7 7 8 10 11 11
11 11 10 10 10 9 8 8 9 8 8 8 8 8 8 8 8 9 9 8 8 8 8 8 8 7 8 7 7 7 7 7 7 8 9 6 7 7 7 9 10 9 12
12 11 10 10 9 8 8 8 8 8 7 7 7 7 7 7 7 8 8 8 8 7 7 6 6 6 6 6 6 6 7 7 7 8 9 8 7 7 7 9 9 8 9
11 11 10 9 9 8 7 6 6 6 6 5 5 4 4 4 4 6 6 7 6 5 4 3 2 1 3 3 4 4 5 6 7 7 8 8 7 6 7 8 9 10 10
11 10 9 9 8 7 7 6 5 4 3 3 3 2 1 1 4 3 2 2 2 2 1 1 1 2 3 2 3 4 4 5 6 7 7 7 7 7 7 8 10 11 11
11 10 9 8 7 7 7 6 6 5 5 4 4 4 5 6 7 5 3 2 3 3 2 2 1 3 2 1 0 1 1 2 3 5 7 7 7 7 8 10 10 11 13
10 9 9 8 8 7 7 7 7 6 6 6 6 7 7 8 8 7 5 5 5 5 4 3 3 3 4 3 2 1 2 2 2 4 5 7 7 7 8 10 12 13 14
10 9 8 8 9 9 9 8 8 8 8 8 8 9 9 9 11 9 5 4 5 5 4 4 3 3 6 7 3 3 4 4 3 4 5 7 9 9 9 9 11 12 14
10 9 9 9 10 10 10 9 8 9 9 9 10 10 10 10 11 11 7 3 4 3 3 4 8 7 7 7 5 5 6 6 8 7 6 8 9 9 9 8 10 11 13
11 11 11 11 11 12 11 10 9 10 10 10 10 10 10 10 11 13 11 5 4 3 3 3 5 7 6 6 6 5 5 8 9 9 9 8 8 7 7 8 7 9 11
13 13 13 11 11 11 11 10 10 10 10 10 9 8 7 8 9 10 11 10 7 4 3 3 4 5 4 5 5 5 7 9 9 8 8 8 8 8 8 9 10 12 12
14 14 13 12 11 11 11 10 9 7 6 6 6 6 6 5 6 7 6 6 6 4 4 4 2 3 6 5 4 6 8 7 8 9 9 9 9 9 9 10 11 12 14
14 13 12 12 12 10 8 7 6 6 5 5 4 4 4 4 5 4 3 2 1 2 3 2 8 9 7 5 5 5 6 6 8 9 9 9 9 9 9 10 10 11 12
13 12 11 11 11 10 10 10 8 10 8 5 5 4 4 5 8 10 8 6 7 6 8 6 5 5 6 6 6 6 7 7 7 8 9 10 10 10 10 10 10 11 12
11 9 9 8 8 8 9 10 16 13 15 16 15 11 10 10 6 6 6 6 6 9 9 6 6 6 7 8 8 8 8 8 8 9 9 10 10 11 11 11 11 12 12
9 8 7 7 7 6 7 7 8 9 12 13 13 13 10 7 5 4 5 6 7 9 6 6 6 7 8 8 8 9 9 9 9 10 10 10 10 10 11 11 11 11 12
9 8 7 6 6 5 5 5 5 5 6 6 9 9 7 4 3 3 7 8 3 3 6 7 7 7 8 8 9 9 9 10 10 10 10 10 11 11 11 12 12 13 13
8 7 6 6 5 5 5 4 5 5 4 4 4 5 4 4 6 3 6 6 7 7 7 7 8 8 8 8 9 9 10 10 11 11 11 11 11 11 12 12 12 14 13
8 8 5 5 5 5 4 4 4 3 3 3 3 4 3 2 3 3 4 6 6 7 7 8 8 8 8 8 9 9 10 10 11 11 11 11 11 12 13 14 13 13 12
7 7 4 4 4 4 3 3 3 3 3 3 4 6 5 5 4 5 5 6 6 7 7 8 8 8 8 8 9 10 12 11 11 11 11 11 12 12 12 12 13 13 13
4 4 4 4 4 4 3 3 3 3 3 3 3 4 1 4 5 5 6 6 6 6 7 7 8 8 8 9 9 10 11 11 11 12 12 13 13 13 13 12 13 13 13
4 4 4 4 4 4 2 3 3 3 3 3 3 3 3 4 5 5 6 6 6 7 8 8 8 8 10 11 11 10 10 10 12 14 14 14 13 13 13 13 15 15 14
4 4 4 4 3 3 3 3 3 3 3 3 3 3 4 4 5 5 6 6 7 8 8 9 9 11 13 13 12 12 12 15 18 17 17 15 14 13 13 13 14 15 14
4 4 4 4 3 3 3 3 3 3 3 3 3 4 4 5 5 5 6 6 8 8 9 10 9 11 14 15 14 15 18 21 18 17 17 14 14 14 14 14 13 14 15
4 4 4 3 3 3 3 3 3 3 3 3 4 4 4 5 5 6 6 7 8 8 9 10 12 14 15 13 16 20 19 19 19 18 17 14 13 13 13 12 15 14 15
Wind_Direction
173 174 172 175 177 180 186 190 189 192 194 200 203 206 207 207 207 211 225 209 218 220 222 223 230 256 250 245 241 246 247 255 264 269 252 239 242 266 261 260 259 253 247
171 173 176 174 176 183 187 192 194 197 203 206 209 211 214 214 213 216 223 221 223 226 226 229 233 229 232 251 252 250 252 257 261 270 272 258 238 248 256 263 265 260 265
170 173 175 177 181 188 190 195 198 202 208 210 212 216 219 221 219 222 224 226 228 231 231 231 235 237 237 242 245 253 254 249 251 264 267 271 266 260 261 261 263 264 268
170 173 177 180 181 185 188 194 198 204 207 210 213 217 219 223 224 226 227 228 230 233 236 237 239 240 244 249 248 254 263 267 261 263 270 271 265 264 264 271 273 261 269
170 174 175 173 173 177 179 185 193 202 207 204 206 212 217 224 234 234 235 231 226 226 223 225 229 59 24 330 292 283 277 271 272 272 275 281 283 293 287 293 290 292 283
170 170 169 167 168 169 170 174 175 175 176 167 163 154 128 20 44 30 265 235 201 194 184 157 122 84 69 58 15 2 340 294 287 287 284 290 298 303 303 297 296 293 290
163 162 159 160 162 160 159 153 146 136 119 105 99 97 83 58 60 71 77 109 106 103 106 100 87 62 46 18 104 211 343 5 318 296 296 305 309 314 312 298 293 291 289
151 147 143 147 144 138 132 121 112 106 102 99 95 90 85 65 59 68 77 98 90 85 83 84 82 53 29 359 335 330 303 295 290 290 305 303 306 313 302 292 291 284 277
134 131 130 132 127 120 111 107 105 106 105 101 95 90 84 65 50 50 46 96 92 87 79 69 66 66 34 357 333 321 308 299 231 228 269 281 288 285 287 291 288 286 287
121 118 115 114 114 110 106 106 106 107 105 101 92 85 82 73 53 41 17 74 84 86 91 91 66 48 33 360 335 323 313 317 316 305 280 268 270 266 243 260 283 288 291
112 107 104 104 106 106 105 106 109 107 103 99 95 89 82 74 65 46 26 39 39 35 35 39 63 54 25 354 323 324 331 313 297 290 287 286 284 283 278 276 280 285 289
106 102 101 101 103 105 105 104 105 110 111 107 104 98 90 81 66 59 49 42 15 31 18 20 45 33 343 315 318 343 312 294 292 297 298 300 302 303 305 304 297 289 283
102 101 100 99 98 103 106 108 109 110 108 109 108 103 97 90 91 88 79 61 24 18 28 54 353 285 285 270 220 262 285 296 309 307 306 309 313 315 310 301 293 287 281
104 103 103 101 99 93 92 94 93 90 95 99 95 93 96 83 53 34 30 42 105 346 348 249 220 233 252 284 293 281 301 319 317 309 310 311 309 307 304 305 304 305 300
104 105 104 100 96 88 74 55 63 57 47 49 64 64 54 68 46 24 11 11 359 358 326 308 315 328 325 330 329 330 325 322 316 315 312 309 308 305 304 305 303 301 298
109 110 108 108 107 108 105 88 58 65 66 59 50 53 69 69 66 44 31 14 344 321 309 327 340 338 334 334 330 327 326 326 324 317 313 311 310 309 309 309 306 302 301
99 100 105 108 114 116 120 119 113 92 81 75 70 65 71 74 60 29 349 316 287 291 316 352 348 344 339 334 331 330 329 329 324 316 315 315 313 310 307 305 304 303 302
102 96 99 102 103 103 104 108 114 121 118 105 98 97 99 97 69 349 316 306 310 329 359 355 349 344 337 334 332 330 326 323 322 321 317 315 314 312 312 311 309 308 306
96 97 94 96 99 98 98 97 93 91 90 92 103 117 144 176 191 238 300 350 1 358 357 352 346 341 336 333 331 326 322 320 320 318 315 315 315 313 310 309 308 305 301
89 72 80 101 101 101 99 94 90 89 85 76 63 45 23 332 357 12 359 1 354 354 351 346 341 334 331 330 326 324 321 319 319 318 319 318 315 312 308 306 304 303 302
103 105 113 96 86 83 83 80 76 70 66 61 66 63 353 339 1 2 355 357 353 350 348 342 335 335 336 333 330 326 322 320 322 322 320 317 315 311 308 305 303 301 300
99 97 91 85 87 77 72 72 68 64 53 38 47 96 178 322 356 358 356 353 350 345 344 340 336 337 339 335 329 324 322 322 325 325 321 316 312 308 306 304 303 303 303
96 99 97 92 91 100 82 68 61 48 38 32 23 15 8 356 350 354 349 347 344 340 341 338 333 335 340 333 327 323 321 327 328 322 315 310 308 306 305 303 302 303 302
92 91 89 89 86 87 80 73 65 52 37 26 16 2 358 355 350 352 344 345 341 339 340 336 333 335 337 334 329 327 338 338 326 314 310 305 303 301 302 302 301 300 300
96 89 86 81 81 80 73 63 53 37 27 21 13 1 357 353 350 349 344 344 339 338 338 335 335 337 336 333 336 338 340 330 321 316 310 302 299 300 302 303 303 304 303
90 89 88 87 79 67 62 55 47 35 27 19 11 5 355 348 348 347 344 343 339 336 334 333 336 336 333 335 344 339 332 326 321 315 309 301 299 302 308 308 307 306 305
Height
1514 1518 1522 1526 1529 1533 1536 1539 1541 1543 1545 1547 1549 1550 1552 1553 1554 1555 1556 1557 1557 1558 1559 1560 1560 1561 1562 1563 1564 1564 1564 1565 1564 1565 1564 1564 1562 1562 1562 1561 1561 1560 1560
1513 1517 1520 1524 1528 1531 1534 1537 1539 1541 1543 1545 1547 1549 1550 1551 1552 1553 1554 1555 1555 1556 1557 1557 1558 1559 1559 1560 1561 1561 1561 1561 1561 1561 1561 1561 1559 1558 1557 1556 1557 1557 1556
1512 1516 1519 1523 1526 1529 1533 1535 1537 1539 1541 1543 1545 1546 1548 1549 1550 1550 1551 1552 1553 1553 1554 1554 1555 1555 1555 1557 1556 1558 1558 1558 1557 1557 1556 1556 1555 1554 1553 1552 1552 1550 1550
1511 1515 1518 1521 1524 1527 1530 1533 1535 1537 1539 1541 1542 1544 1545 1546 1547 1548 1548 1549 1549 1550 1550 1551 1551 1552 1552 1553 1553 1553 1553 1553 1553 1552 1552 1552 1551 1550 1549 1548 1547 1546 1544
1510 1514 1517 1520 1523 1525 1528 1530 1533 1535 1537 1538 1540 1541 1542 1543 1544 1544 1545 1546 1546 1547 1547 1547 1547 1548 1548 1548 1549 1549 1549 1549 1549 1548 1547 1547 1546 1545 1544 1543 1541 1540 1538
1509 1512 1515 1518 1521 1523 1525 1528 1530 1532 1534 1536 1537 1538 1539 1540 1540 1541 1541 1542 1542 1543 1543 1543 1543 1543 1543 1543 1544 1544 1544 1544 1543 1543 1542 1542 1540 1540 1538 1537 1535 1534 1532
1507 1510 1513 1516 1519 1521 1523 1525 1527 1529 1531 1532 1534 1535 1535 1536 1536 1537 1537 1538 1538 1539 1539 1539 1540 1540 1539 1539 1539 1539 1538 1538 1538 1538 1537 1536 1534 1533 1531 1530 1529 1527 1525
1505 1508 1511 1514 1517 1519 1521 1523 1525 1527 1528 1530 1531 1532 1532 1533 1534 1534 1535 1535 1536 1536 1536 1536 1536 1536 1536 1536 1535 1535 1534 1533 1533 1532 1531 1529 1528 1526 1525 1523 1522 1519 1517
1504 1506 1509 1512 1515 1517 1519 1521 1523 1525 1527 1528 1529 1530 1531 1531 1532 1533 1533 1534 1534 1534 1534 1534 1533 1533 1533 1532 1532 1531 1530 1529 1528 1526 1525 1523 1522 1520 1518 1517 1516 1514 1512
1503 1506 1509 1511 1513 1516 1518 1520 1523 1524 1526 1528 1529 1530 1530 1531 1531 1532 1532 1534 1533 1533 1532 1532 1531 1530 1529 1529 1528 1527 1527 1525 1524 1522 1520 1517 1516 1514 1512 1510 1509 1508 1505
1503 1506 1509 1512 1513 1516 1518 1521 1523 1524 1526 1528 1529 1530 1530 1530 1531 1531 1532 1532 1532 1532 1532 1531 1529 1527 1526 1525 1524 1523 1521 1520 1519 1517 1515 1514 1512 1510 1508 1506 1503 1501 1499
1504 1507 1510 1512 1515 1517 1519 1522 1524 1526 1527 1528 1529 1530 1531 1531 1531 1531 1531 1531 1531 1530 1530 1529 1527 1525 1523 1522 1520 1519 1517 1515 1514 1513 1511 1509 1507 1505 1503 1500 1497 1494 1492
1506 1509 1512 1514 1517 1519 1522 1524 1525 1527 1530 1531 1531 1532 1532 1532 1531 1530 1530 1529 1529 1528 1527 1525 1523 1522 1520 1519 1517 1515 1513 1512 1511 1509 1507 1505 1502 1499 1496 1493 1491 1488 1485
1509 1512 1515 1517 1519 1521 1524 1526 1528 1529 1531 1531 1532 1533 1533 1532 1532 1530 1530 1529 1527 1527 1525 1523 1521 1519 1518 1516 1515 1513 1512 1510 1507 1505 1503 1500 1497 1494 1492 1489 1486 1483 1480
1512 1516 1518 1520 1522 1523 1525 1526 1528 1529 1530 1531 1532 1532 1532 1531 1529 1529 1528 1527 1525 1524 1522 1522 1521 1519 1517 1515 1513 1511 1509 1506 1504 1501 1499 1496 1493 1490 1487 1485 1481 1478 1475
1516 1519 1521 1523 1524 1526 1527 1528 1528 1529 1530 1530 1530 1530 1529 1529 1528 1527 1526 1524 1522 1521 1520 1521 1519 1517 1515 1513 1511 1508 1506 1503 1501 1498 1495 1492 1489 1486 1483 1479 1476 1473 1469
1519 1521 1523 1525 1527 1528 1529 1530 1530 1530 1530 1529 1529 1529 1528 1527 1526 1525 1523 1522 1521 1519 1520 1519 1517 1515 1513 1510 1508 1505 1503 1500 1497 1494 1491 1488 1485 1481 1478 1475 1471 1468 1464
1522 1524 1525 1527 1528 1529 1530 1531 1531 1531 1531 1530 1529 1528 1527 1526 1525 1524 1522 1521 1521 1520 1519 1517 1515 1513 1510 1508 1505 1502 1499 1496 1494 1491 1487 1484 1481 1477 1473 1470 1466 1462 1458
1524 1526 1527 1528 1529 1530 1530 1531 1531 1531 1531 1531 1530 1528 1527 1526 1524 1523 1522 1522 1521 1520 1518 1515 1513 1511 1508 1505 1502 1499 1496 1493 1490 1487 1484 1480 1476 1473 1469 1465 1461 1457 1453
1525 1526 1527 1529 1530 1530 1530 1531 1531 1531 1531 1531 1530 1529 1528 1527 1527 1525 1523 1522 1520 1518 1516 1514 1511 1509 1506 1503 1500 1497 1494 1490 1487 1483 1480 1476 1472 1468 1464 1460 1456 1452 1447
1527 1527 1527 1529 1530 1530 1531 1531 1531 1531 1531 1530 1530 1528 1526 1527 1526 1525 1523 1521 1520 1517 1515 1512 1509 1507 1504 1501 1498 1494 1491 1487 1483 1479 1475 1471 1467 1463 1459 1455 1451 1446 1442
1529 1529 1530 1530 1530 1530 1531 1531 1531 1530 1530 1530 1529 1528 1526 1526 1525 1524 1522 1520 1518 1516 1513 1510 1508 1505 1502 1498 1495 1491 1487 1484 1480 1476 1471 1467 1463 1458 1454 1450 1445 1441 1437
1529 1530 1530 1530 1530 1530 1530 1531 1531 1530 1530 1530 1529 1528 1527 1526 1525 1523 1521 1519 1516 1514 1511 1508 1505 1503 1499 1496 1492 1489 1485 1480 1476 1471 1466 1462 1458 1453 1449 1445 1440 1436 1432
1530 1530 1530 1530 1530 1531 1531 1531 1530 1530 1530 1529 1528 1527 1526 1525 1523 1521 1519 1517 1515 1512 1509 1506 1504 1500 1497 1493 1489 1486 1482 1476 1471 1466 1462 1457 1453 1448 1444 1440 1436 1432 1428
1530 1530 1530 1531 1531 1531 1531 1531 1530 1530 1529 1528 1527 1526 1525 1524 1522 1520 1518 1515 1513 1510 1507 1505 1501 1498 1494 1490 1487 1482 1477 1472 1467 1462 1457 1453 1448 1445 1440 1436 1432 1428 1424
1531 1531 1531 1531 1531 1531 1531 1531 1530 1529 1529 1528 1527 1525 1524 1522 1521 1519 1516 1514 1511 1508 1505 1503 1499 1496 1492 1488 1483 1478 1473 1468 1463 1458 1453 1449 1445 1441 1437 1433 1428 1424 1420